Location: Newark
(12.4436°N, 0.6167°W)
Time: 09:04:17
(UTC+00:00)

Vanguard 1 - Pass Details

Date: 19 December 2019
Orbit: 651 x 3832 km, 34.2° (Epoch: 17 January)

Event Time Altitude Azimuth Distance (km) Brightness Sun altitude
Rises 08:35:51 0° 304° (NW) 7,793 14.1 28.7°
Reaches altitude 10° 08:41:38 10° 306° (NW) 6,510 13.8 29.8°
Maximum altitude 09:01:09 80° 32° (NNE) 2,359 12.5 33.6°
Drops below altitude 10° 09:11:29 10° 119° (ESE) 3,728 14.3 35.5°
Sets 09:13:51 0° 120° (ESE) 4,416 14.4 35.9°
